This is the latest recevied weather packets stored in our database for station/object KK7KHO. If no packets are shown the sender has not sent any weather packets the latest 10 day(s).
| Time | Temp. | Humidity | Pressure | Rain* | Wind** | Luminosity | Snow |
|---|---|---|---|---|---|---|---|
| 1777072533 | 17.78° C | 35% | 1016.7 hPa | 0 mm | - | 504 W/m² | - |
| 1777072233 | 17.78° C | 36% | 1016.8 hPa | 0 mm | - | 505 W/m² | - |
| 1777071928 | 17.78° C | 33% | 1016.6 hPa | 0 mm | - | 535 W/m² | - |
| 1777071624 | 17.22° C | 33% | 1016.7 hPa | 0 mm | - | 565 W/m² | - |
| 1777071320 | 17.22° C | 33% | 1016.8 hPa | 0 mm | - | 432 W/m² | - |
| 1777071015 | 17.22° C | 34% | 1016.9 hPa | 0 mm | - | 297 W/m² | - |
| 1777070712 | 16.67° C | 34% | 1016.9 hPa | 0 mm | - | 316 W/m² | - |
| 1777070409 | 17.78° C | 34% | 1017 hPa | 0 mm | - | 270 W/m² | - |
| 1777070108 | 17.78° C | 34% | 1017 hPa | 0 mm | - | 508 W/m² | - |
| 1777069803 | 18.33° C | 33% | 1016.9 hPa | 0 mm | - | 620 W/m² | - |
| 1777069502 | 17.78° C | 34% | 1017.1 hPa | 0 mm | - | 550 W/m² | - |
| 1777069199 | 17.78° C | 33% | 1017.1 hPa | 0 mm | - | 378 W/m² | - |
| 1777068895 | 18.33° C | 31% | 1017.3 hPa | 0 mm | - | 414 W/m² | - |
| 1777068590 | 17.78° C | 36% | 1017.5 hPa | 0 mm | - | 695 W/m² | - |
| 1777068290 | 17.78° C | 40% | 1017.5 hPa | 0 mm | - | 708 W/m² | - |
| 1777067985 | 18.33° C | 40% | 1017.4 hPa | 0 mm | - | 662 W/m² | - |
| 1777067684 | 17.22° C | 45% | 1017.6 hPa | 0 mm | - | 669 W/m² | - |
| 1777067379 | 17.22° C | 46% | 1017.6 hPa | 0 mm | - | 659 W/m² | - |
| 1777067073 | 17.22° C | 43% | 1017.7 hPa | 0 mm | - | 708 W/m² | - |
| 1777066768 | 17.22° C | 41% | 1017.6 hPa | 0 mm | - | 559 W/m² | - |
| 1777066465 | 17.22° C | 41% | 1017.8 hPa | 0 mm | - | 716 W/m² | - |
| 1777066160 | 16.67° C | 48% | 1017.6 hPa | 0 mm | - | 639 W/m² | - |
| 1777065854 | 17.78° C | 46% | 1018 hPa | 0 mm | - | 617 W/m² | - |
| 1777065550 | 17.78° C | 40% | 1018 hPa | 0 mm | - | 714 W/m² | - |
| 1777065250 | 17.22° C | 38% | 1017.8 hPa | 0 mm | - | 671 W/m² | - |
* Rain latest hour (hover to see other rain measurements)
** Current wind speed in m/s (hover to see current wind gust speed)